| time (UTC) | temp C | wind direction | speed KPH | gust KPH | rain 1hr cm | rain 24hr cm | rain mn cm | humidity % | barometer mb |
| 20260507084703 | 8 | 44 | 0.0 | 1.6 | 0.00 | 0.00 | 0.00 | 88 | 1022.0 |
| 20260507083704 | 8 | 44 | 0.0 | 1.6 | 0.00 | 0.00 | 0.00 | 87 | 1022.0 |
| 20260507082704 | 8 | 44 | 0.0 | 1.6 | 0.00 | 0.00 | 0.00 | 87 | 1021.9 |
| 20260507081704 | 9 | 44 | 0.0 | 1.6 | 0.00 | 0.00 | 0.00 | 87 | 1022.0 |
| 20260507080704 | 9 | 44 | 0.0 | 1.6 | 0.00 | 0.00 | 0.00 | 87 | 1021.9 |
| 20260507075703 | 9 | 44 | 0.0 | 1.6 | 0.00 | 0.00 | 0.00 | 87 | 1021.9 |
| 20260507074703 | 9 | 44 | 1.6 | 3.2 | 0.00 | 0.00 | 0.00 | 87 | 1021.9 |
| 20260507073703 | 9 | 44 | 1.6 | 4.8 | 0.00 | 0.00 | 0.00 | 88 | 1021.8 |
| 20260507072704 | 9 | 44 | 1.6 | 4.8 | 0.00 | 0.00 | 0.00 | 88 | 1021.9 |
| 20260507071704 | 9 | 44 | 1.6 | 4.8 | 0.00 | 0.00 | 0.00 | 89 | 1021.9 |
| 20260507070703 | 9 | 44 | 1.6 | 3.2 | 0.00 | 0.00 | 0.00 | 89 | 1021.8 |
| 20260507065704 | 9 | 44 | 1.6 | 3.2 | 0.00 | 0.00 | 0.00 | 89 | 1021.8 |
| 20260507064704 | 9 | 44 | 1.6 | 3.2 | 0.00 | 0.00 | 0.00 | 89 | 1021.8 |
| 20260507063704 | 9 | 44 | 1.6 | 3.2 | 0.00 | 0.00 | 0.00 | 88 | 1021.8 |
| 20260507062704 | 10 | 44 | 1.6 | 3.2 | 0.00 | 0.00 | 0.00 | 88 | 1021.9 |
| 20260507061706 | 10 | 44 | 1.6 | 4.8 | 0.00 | 0.00 | 0.00 | 88 | 1021.9 |
| 20260507060704 | 10 | 52 | 1.6 | 4.8 | 0.00 | 0.00 | 0.00 | 88 | 1021.9 |
| 20260507055705 | 10 | 59 | 1.6 | 4.8 | 0.00 | 0.00 | 0.00 | 88 | 1021.8 |
| 20260507054704 | 10 | 59 | 1.6 | 8.0 | 0.00 | 0.00 | 0.00 | 87 | 1021.8 |
| 20260507053705 | 10 | 58 | 3.2 | 8.0 | 0.00 | 0.00 | 0.00 | 87 | 1021.7 |
| 20260507052703 | 11 | 57 | 1.6 | 4.8 | 0.00 | 0.00 | 0.00 | 87 | 1021.8 |
| 20260507050704 | 11 | 54 | 1.6 | 4.8 | 0.00 | 0.00 | 0.00 | 86 | 1021.8 |
| 20260507045704 | 11 | 54 | 1.6 | 4.8 | 0.00 | 0.00 | 0.00 | 85 | 1021.8 |
| 20260507044704 | 11 | 54 | 1.6 | 4.8 | 0.00 | 0.00 | 0.00 | 85 | 1021.9 |
| 20260507043704 | 11 | 54 | 3.2 | 4.8 | 0.00 | 0.00 | 0.00 | 84 | 1021.8 |
| 20260507042704 | 12 | 53 | 1.6 | 4.8 | 0.00 | 0.00 | 0.00 | 84 | 1021.8 |
| 20260507041704 | 12 | 46 | 1.6 | 4.8 | 0.00 | 0.00 | 0.00 | 83 | 1021.8 |
| 20260507035704 | 12 | 50 | 1.6 | 4.8 | 0.00 | 0.00 | 0.00 | 83 | 1021.6 |
| 20260507034704 | 13 | 56 | 0.0 | 4.8 | 0.00 | 0.00 | 0.00 | 83 | 1021.5 |
| 20260507033703 | 13 | 255 | 0.0 | 1.6 | 0.00 | 0.00 | 0.00 | 85 | 1021.4 |
| 20260507032704 | 14 | 255 | 0.0 | 3.2 | 0.00 | 0.00 | 0.00 | 84 | 1021.3 |
| 20260507031704 | 14 | 255 | 0.0 | 1.6 | 0.00 | 0.00 | 0.00 | 84 | 1021.3 |
| 20260507030704 | 14 | 255 | 0.0 | 1.6 | 0.00 | 0.00 | 0.00 | 83 | 1021.2 |
| 20260507025704 | 15 | 255 | 0.0 | 1.6 | 0.00 | 0.00 | 0.00 | 82 | 1021.2 |
| 20260507024704 | 15 | 255 | 0.0 | 1.6 | 0.00 | 0.00 | 0.00 | 82 | 1021.1 |
| 20260507023703 | 15 | 255 | 0.0 | 3.2 | 0.00 | 0.00 | 0.00 | 81 | 1021.2 |
| 20260507022704 | 16 | 255 | 1.6 | 1.6 | 0.00 | 0.00 | 0.00 | 80 | 1021.0 |
| 20260507021704 | 16 | 255 | 0.0 | 3.2 | 0.00 | 0.00 | 0.00 | 79 | 1021.1 |
| 20260507014704 | 17 | 255 | 0.0 | 3.2 | 0.00 | 0.00 | 0.00 | 78 | 1021.2 |
| 20260507013704 | 17 | 255 | 0.0 | 3.2 | 0.00 | 0.00 | 0.00 | 77 | 1021.3 |
| 20260507012704 | 17 | 255 | 0.0 | 1.6 | 0.00 | 0.00 | 0.00 | 77 | 1021.1 |
| 20260507011704 | 18 | 255 | 0.0 | 3.2 | 0.00 | 0.00 | 0.00 | 76 | 1021.2 |
| 20260507010705 | 18 | 255 | 1.6 | 3.2 | 0.00 | 0.00 | 0.00 | 75 | 1021.3 |
| 20260507004704 | 19 | 255 | 0.0 | 3.2 | 0.00 | 0.00 | 0.00 | 68 | 1021.1 |
| 20260507003703 | 20 | 255 | 0.0 | 1.6 | 0.00 | 0.00 | 0.00 | 73 | 1021.2 |
| 20260507001704 | 20 | 255 | 0.0 | 0.0 | 0.00 | 0.00 | 0.00 | 70 | 1021.2 |
| 20260507000704 | 20 | 255 | 0.0 | 0.0 | 0.00 | 0.00 | 0.00 | 70 | 1021.2 |
| 20260506235703 | 20 | 255 | 0.0 | 0.0 | 0.00 | 0.00 | 0.00 | 70 | 1021.2 |
| 20260506233704 | 21 | 255 | 0.0 | 1.6 | 0.00 | 0.00 | 0.00 | 69 | 1021.2 |
| 20260506232704 | 21 | 255 | 0.0 | 1.6 | 0.00 | 0.00 | 0.00 | 68 | 1021.2 |
| 20260506231704 | 21 | 255 | 0.0 | 0.0 | 0.00 | 0.00 | 0.00 | 68 | 1021.2 |
| 20260506230704 | 21 | 255 | 0.0 | 3.2 | 0.00 | 0.00 | 0.00 | 68 | 1021.4 |
| 20260506225704 | 21 | 255 | 0.0 | 1.6 | 0.00 | 0.00 | 0.00 | 68 | 1021.3 |
| 20260506224705 | 21 | 255 | 0.0 | 1.6 | 0.00 | 0.00 | 0.00 | 68 | 1021.4 |
| 20260506223704 | 21 | 255 | 0.0 | 3.2 | 0.00 | 0.00 | 0.00 | 70 | 1021.5 |
| 20260506220704 | 21 | 180 | 1.6 | 8.0 | 0.00 | 0.00 | 0.00 | 70 | 1021.5 |
| 20260506215704 | 20 | 250 | 0.0 | 11.3 | 0.00 | 0.00 | 0.00 | 67 | 1021.5 |
| 20260506213704 | 20 | 202 | 3.2 | 14.5 | 0.00 | 0.00 | 0.00 | 73 | 1021.6 |
| 20260506212703 | 20 | 210 | 0.0 | 9.7 | 0.00 | 0.00 | 0.00 | 74 | 1021.4 |
| 20260506211704 | 19 | 251 | 1.6 | 4.8 | 0.00 | 0.00 | 0.00 | 76 | 1021.7 |
| 20260506205704 | 18 | 200 | 0.0 | 9.7 | 0.00 | 0.00 | 0.00 | 75 | 1021.8 |
| 20260506203704 | 18 | 207 | 1.6 | 8.0 | 0.00 | 0.00 | 0.00 | 75 | 1021.8 |
| 20260506201704 | 19 | 232 | 1.6 | 9.7 | 0.00 | 0.00 | 0.00 | 74 | 1021.6 |
| 20260506200704 | 18 | 240 | 1.6 | 4.8 | 0.00 | 0.00 | 0.00 | 77 | 1021.8 |
| 20260506195704 | 17 | 194 | 3.2 | 14.5 | 0.00 | 0.00 | 0.00 | 58 | 1021.9 |
| 20260506194704 | 17 | 202 | 1.6 | 14.5 | 0.00 | 0.00 | 0.00 | 81 | 1021.9 |
| 20260506192704 | 16 | 199 | 4.8 | 8.0 | 0.00 | 0.00 | 0.00 | 81 | 1022.0 |
| 20260506191704 | 16 | 208 | 0.0 | 11.3 | 0.00 | 0.00 | 0.00 | 83 | 1022.1 |
| 20260506190704 | 16 | 193 | 1.6 | 8.0 | 0.00 | 0.00 | 0.00 | 81 | 1021.9 |
| 20260506185704 | 16 | 243 | 0.0 | 8.0 | 0.00 | 0.00 | 0.00 | 85 | 1021.9 |
| 20260506184703 | 15 | 215 | 0.0 | 4.8 | 0.00 | 0.00 | 0.00 | 84 | 1021.9 |
| 20260506183704 | 15 | 217 | 0.0 | 8.0 | 0.00 | 0.00 | 0.00 | 87 | 1022.1 |
| 20260506182704 | 13 | 194 | 1.6 | 9.7 | 0.00 | 0.00 | 0.00 | 87 | 1021.6 |
| 20260506181704 | 13 | 217 | 0.0 | 3.2 | 0.00 | 0.00 | 0.00 | 89 | 1021.7 |
| 20260506180704 | 13 | 174 | 0.0 | 3.2 | 0.00 | 0.00 | 0.00 | 89 | 1021.9 |
| 20260506175704 | 13 | 219 | 0.0 | 9.7 | 0.00 | 0.00 | 0.00 | 89 | 1021.8 |
| 20260506174703 | 13 | 203 | 0.0 | 4.8 | 0.00 | 0.00 | 0.00 | 91 | 1021.8 |
| 20260506172704 | 13 | 183 | 0.0 | 4.8 | 0.00 | 0.00 | 0.00 | 90 | 1021.5 |
| 20260506171703 | 13 | 206 | 0.0 | 8.0 | 0.00 | 0.00 | 0.00 | 89 | 1021.5 |
| 20260506170707 | 13 | 190 | 0.0 | 8.0 | 0.00 | 0.00 | 0.00 | 90 | 1021.5 |
| 20260506165704 | 12 | 211 | 1.6 | 4.8 | 0.00 | 0.00 | 0.00 | 90 | 1021.6 |
| 20260506164703 | 12 | 212 | 0.0 | 1.6 | 0.00 | 0.00 | 0.00 | 92 | 1021.8 |
| 20260506163704 | 12 | 212 | 0.0 | 3.2 | 0.00 | 0.00 | 0.00 | 92 | 1021.7 |
| 20260506161703 | 12 | 212 | 0.0 | 1.6 | 0.00 | 0.00 | 0.00 | 93 | 1021.6 |
| 20260506160705 | 12 | 212 | 1.6 | 4.8 | 0.00 | 0.00 | 0.00 | 92 | 1021.5 |
| 20260506155704 | 12 | 205 | 0.0 | 1.6 | 0.00 | 0.00 | 0.00 | 92 | 1021.1 |
| 20260506154704 | 12 | 205 | 0.0 | 1.6 | 0.00 | 0.00 | 0.00 | 92 | 1021.1 |
| 20260506153704 | 12 | 205 | 0.0 | 0.0 | 0.00 | 0.00 | 0.00 | 93 | 1020.9 |
| 20260506152704 | 12 | 205 | 0.0 | 1.6 | 0.00 | 0.00 | 0.00 | 92 | 1020.7 |
| 20260506151704 | 11 | 205 | 0.0 | 1.6 | 0.00 | 0.00 | 0.00 | 94 | 1021.1 |
| 20260506150704 | 11 | 205 | 0.0 | 0.0 | 0.00 | 0.00 | 0.00 | 94 | 1021.4 |
| 20260506145704 | 11 | 205 | 0.0 | 0.0 | 0.00 | 0.00 | 0.00 | 98 | 1021.3 |
| 20260506143704 | 11 | 205 | 0.0 | 0.0 | 0.00 | 0.00 | 0.00 | 94 | 1021.4 |
| 20260506142704 | 11 | 205 | 0.0 | 0.0 | 0.00 | 0.00 | 0.00 | 94 | 1021.2 |
| 20260506141704 | 11 | 205 | 0.0 | 0.0 | 0.00 | 0.00 | 0.00 | 94 | 1020.9 |
| 20260506140704 | 11 | 205 | 0.0 | 0.0 | 0.00 | 0.00 | 0.00 | 95 | 1020.7 |
| 20260506135704 | 11 | 205 | 0.0 | 0.0 | 0.00 | 0.00 | 0.00 | 95 | 1020.4 |
| 20260506134704 | 11 | 205 | 0.0 | 0.0 | 0.00 | 0.00 | 0.00 | 95 | 1020.3 |
| 20260506133703 | 11 | 205 | 0.0 | 0.0 | 0.00 | 0.00 | 0.00 | 95 | 1020.4 |
| 20260506132704 | 11 | 205 | 0.0 | 0.0 | 0.00 | 0.00 | 0.00 | 95 | 1020.4 |
| 20260506130704 | 11 | 205 | 0.0 | 0.0 | 0.00 | 0.00 | 0.00 | 94 | 1020.2 |
| 20260506125704 | 11 | 205 | 0.0 | 0.0 | 0.00 | 0.00 | 0.00 | 94 | 1020.0 |
| 20260506124704 | 11 | 205 | 0.0 | 0.0 | 0.00 | 0.00 | 0.00 | 94 | 1020.0 |
| 20260506123704 | 12 | 205 | 0.0 | 0.0 | 0.00 | 0.00 | 0.00 | 94 | 1020.0 |
| 20260506122704 | 12 | 205 | 0.0 | 0.0 | 0.00 | 0.00 | 0.00 | 94 | 1019.9 |
| 20260506121704 | 12 | 205 | 0.0 | 0.0 | 0.00 | 0.00 | 0.00 | 94 | 1019.9 |
| 20260506120704 | 12 | 205 | 0.0 | 0.0 | 0.00 | 0.00 | 0.00 | 93 | 1020.1 |
| 20260506115703 | 12 | 205 | 0.0 | 0.0 | 0.00 | 0.00 | 0.00 | 93 | 1020.0 |
| 20260506114703 | 12 | 205 | 0.0 | 0.0 | 0.00 | 0.00 | 0.00 | 93 | 1019.9 |
| 20260506113703 | 12 | 205 | 0.0 | 0.0 | 0.00 | 0.00 | 0.00 | 93 | 1019.8 |
| 20260506111704 | 12 | 205 | 0.0 | 0.0 | 0.00 | 0.00 | 0.00 | 91 | 1019.7 |
| 20260506110704 | 12 | 205 | 0.0 | 0.0 | 0.00 | 0.00 | 0.00 | 90 | 1019.6 |
| 20260506105704 | 12 | 205 | 0.0 | 0.0 | 0.00 | 0.00 | 0.00 | 90 | 1019.5 |
| 20260506104704 | 12 | 205 | 0.0 | 0.0 | 0.00 | 0.00 | 0.00 | 89 | 1019.3 |
| 20260506103704 | 12 | 205 | 0.0 | 0.0 | 0.00 | 0.00 | 0.00 | 89 | 1019.2 |
| 20260506102703 | 12 | 205 | 0.0 | 0.0 | 0.00 | 0.00 | 0.00 | 89 | 1019.1 |
| 20260506101703 | 12 | 205 | 0.0 | 1.6 | 0.00 | 0.00 | 0.00 | 89 | 1019.0 |
| 20260506095704 | 12 | 205 | 0.0 | 0.0 | 0.00 | 0.00 | 0.00 | 89 | 1018.9 |
| 20260506093704 | 12 | 205 | 0.0 | 0.0 | 0.00 | 0.00 | 0.00 | 89 | 1018.8 |
| 20260506092703 | 12 | 205 | 0.0 | 0.0 | 0.00 | 0.00 | 0.00 | 89 | 1018.7 |
| 20260506091703 | 12 | 205 | 0.0 | 0.0 | 0.00 | 0.00 | 0.00 | 89 | 1018.6 |
| 20260506085704 | 12 | 205 | 0.0 | 0.0 | 0.00 | 0.00 | 0.00 | 88 | 1018.8 |